Location: Abundant Grace Fellowship
(35.0349°N, 90.0924°W)
Time: 21:24:52
(UTC+00:00)

CENTAUR R/B - Pass Details

Date: 18 January 2026
Orbit: 629 x 1551 km, 63.4° (Epoch: 11 February)

Event Time Altitude Azimuth Distance (km) Brightness Sun altitude
Rises 10:37:13 0° 175° (S) 3,022 5.2 -30.4°
Reaches altitude 10° 10:39:45 10° 161° (SSE) 2,195 4.6 -29.8°
Maximum altitude 10:43:43 24° 107° (ESE) 1,590 4.3 -29.0°
Drops below altitude 10° 10:48:20 10° 55° (NE) 2,591 5.3 -28.1°
Sets 10:51:35 0° 43° (NE) 3,708 6.0 -27.4°
